Find Starlink 31668

NORAD ID: 59580 Int'l Des: 2024-076 Owner: SPXS Country: US Constellation: starlink operational
LEOCIRCULAR

現在のビュー

3D地球を読み込み中...

About Starlink 31668

Starlink 31668 (NORAD 59580) is a starlink constellation satellite (v2 mini) launched Apr 23, 2024 by SPXS of US. It operates in LEO, CIRCULAR orbit with a mass of 730.00 kg.

Starlink 31668について

説明を読み込み中...

次回通過

Passes for default location (London). Set your location on the main map for personalized predictions.

高度履歴

Loading altitude history...

軌道要素

1 59580U 24076S 26168.44069255 -.00000103 00000-0 57816-5 0 9991
2 59580 43.0017 165.2007 0000981 282.5591 77.5151 15.27583119121760
Epoch: Jun 17, 2026 • Age: 6 hours

現在のステータス

高度 495.0 km
速度 7.62 km/s
衛星直下点 -41.16°S, 99.19°W
打ち上げ日 Apr 23, 2024
運用期間 2.1 years
タイプ internet

技術仕様

分類 Payload
質量 730.00 kg
乾燥質量 700.00 kg
総質量 730.00 kg
長さ 0.30 m
直径 4.10 m
スパン 29.00 m
形状 Box + pan
製造者 SPXS
バスタイプ Starlink V2M
フェーズステータス In Orbit
所有者/国 SPXS/US

Most Searched